weather.gov     
National Weather Service

Regional Weather Roundup
NWS Homepage
This page is being discontinued on March 12, 2014.
The same data is available at this site. Please update your bookmarks.
Thank you, and we apologize for the inconvenience.
Please send an email to SR-SRH.Webmaster@noaa.gov with any concerns.


Current Version
Previous Version:    01  02  03  04  05  06  07  08  09  10  11  12  13  14  15  16  17  18  19  20  21  22  23  24  25  26  27  28  29  30  
   31  32  33  34  35  36  37  38  39  40  41  42  43  44  45  46  47  48  49  50  51  52  53  54  
[Printable]
188
ASUS45 KPSR 271200
RWRAZ

PRELIMINARY ARIZONA REGIONAL HOURLY WEATHER ROUNDUP
NATIONAL WEATHER SERVICE PHOENIX AZ
500 AM MST THU NOV 27 2014

NOTE: FAIR INDICATES FEW OR NO CLOUDS BELOW 12,000 FEET WITH NO
SIGNIFICANT WEATHER AND/OR OBSTRUCTIONS TO VISIBILITY.

AZZ001>003-036-271300-
NORTHWEST ARIZONA

CITY           SKY/WX    TMP DP  RH WIND       PRES   REMARKS
KINGMAN        PTCLDY    43  16  33 E5        30.29F
6HR MIN TEMP:  34; 6HR MAX TEMP:  46;

$$

AZZ004>008-015-016-018-271300-
NORTH CENTRAL ARIZONA

CITY           SKY/WX    TMP DP  RH WIND       PRES   REMARKS
GRAND CANYON   MOCLDY    14   5  67 NE5       30.46F WCI   6
6HR MIN TEMP:  14; 6HR MAX TEMP:  22;

PRESCOTT       PTCLDY    31  16  54 SW3       30.38S
6HR MIN TEMP:  31; 6HR MAX TEMP:  41;

FLAGSTAFF      NOT AVBL
PAYSON         CLEAR     50  14  23 NE3       30.37S
PAGE           MOCLDY    36  18  48 CALM      30.43R
6HR MIN TEMP:  36; 6HR MAX TEMP:  43;

$$

AZZ009>014-017-271300-
NORTHEAST ARIZONA

CITY           SKY/WX    TMP DP  RH WIND       PRES   REMARKS
WINSLOW        NOT AVBL
SAINT JOHNS    MOCLDY    22  14  71 CALM      30.45S
6HR MIN TEMP:  22; 6HR MAX TEMP:  37;

SHOW LOW       PTCLDY    27  14  59 CALM      30.45F
$$

AZZ023-271300-
GREATER PHOENIX AREA

CITY           SKY/WX    TMP DP  RH WIND       PRES   REMARKS
PHOENIX        CLEAR     49  29  46 E5        30.16F
6HR MIN TEMP:  49; 6HR MAX TEMP:  58;

LUKE AFB       CLEAR     44  26  50 N6        30.17F HAZE
6HR MIN TEMP:  44; 6HR MAX TEMP:  51;

DEER VALLEY    CLEAR     52  17  25 NE5       30.17F
6HR MIN TEMP:  49; 6HR MAX TEMP:  63;

SCOTTSDALE     CLEAR     48  27  44 CALM      30.19F
6HR MIN TEMP:  48; 6HR MAX TEMP:  54;

MESA-GATEWAY   CLEAR     41  23  48 SE6       30.21R
$$

AZZ027-028-271300-
SOUTHWEST MARICOPA COUNTY AND PINAL COUNTY

CITY           SKY/WX    TMP DP  RH WIND       PRES   REMARKS
CASA GRANDE    CLEAR     41  14  33 CALM      30.20S
6HR MIN TEMP:  39; 6HR MAX TEMP:  52;

$$

AZZ503-504-507>509-271300-
SOUTHEAST ARIZONA

CITY           SKY/WX    TMP DP  RH WIND       PRES   REMARKS
TUCSON         CLEAR     45  19  35 CALM      30.23S
6HR MIN TEMP:  43; 6HR MAX TEMP:  50;

DAVIS-MONTHAN  CLEAR     43  19  38 CALM      30.21S
6HR MIN TEMP:  43; 6HR MAX TEMP:  50;

NOGALES        CLEAR     45  20  36 E5        30.25S
6HR MIN TEMP:  41; 6HR MAX TEMP:  48;

SIERRA VISTA   PTCLDY    50  20  30 SE7       30.31S
6HR MIN TEMP:  45; 6HR MAX TEMP:  55;

SAFFORD        PTCLDY    43  17  35 SE12      30.32S
6HR MIN TEMP:  37; 6HR MAX TEMP:  44;

$$

AZZ020-021-025-026-031-271300-
SOUTHWEST ARIZONA

CITY           SKY/WX    TMP DP  RH WIND       PRES   REMARKS
YUMA           NOT AVBL
$$

CAZ031-033-041-043-047-048-061-271300-
SOUTHERN CALIFORNIA

CITY           SKY/WX    TMP DP  RH WIND       PRES   REMARKS
DOWNTOWN L.A.  CLEAR     64  21  19 N5        30.08F
6HR MIN TEMP:  59; 6HR MAX TEMP:  65;

L.A. AIRPORT   CLEAR     62  24  23 NE5       30.09S
6HR MIN TEMP:  58; 6HR MAX TEMP:  72;

SAN DIEGO      CLEAR     57  30  35 CALM      30.09S
6HR MIN TEMP:  56; 6HR MAX TEMP:  65;

BURBANK        CLEAR     57  18  21 CALM      30.10F
6HR MIN TEMP:  54; 6HR MAX TEMP:  62;

ONTARIO        CLEAR     55  28  35 NE5       30.12F
6HR MIN TEMP:  52; 6HR MAX TEMP:  63;

RIVERSIDE      CLEAR     58  25  28 NE5       30.12F
6HR MIN TEMP:  54; 6HR MAX TEMP:  63;

PALM SPRINGS   CLEAR     52  22  30 CALM      30.17S
6HR MIN TEMP:  49; 6HR MAX TEMP:  62;

EL CENTRO NAS  CLEAR     49  22  34 W6        30.13S
6HR MIN TEMP:  46; 6HR MAX TEMP:  54;

IMPERIAL       CLEAR     48  27  44 CALM      30.12F
6HR MIN TEMP:  46; 6HR MAX TEMP:  53;

BLYTHE         CLEAR     49  13  23 CALM      30.17S
6HR MIN TEMP:  49; 6HR MAX TEMP:  60;

$$

NVZ020-UTZ003-271300-
SOUTHERN NEVADA-UTAH

CITY           SKY/WX    TMP DP  RH WIND       PRES   REMARKS
LAS VEGAS      NOT AVBL
SALT LAKE CITY MOCLDY    45  26  47 SE15      30.29F
6HR MIN TEMP:  43; 6HR MAX TEMP:  46;

$$

NMZ009-TXZ055-271300-
NEW MEXICO-WEST TEXAS

CITY           SKY/WX    TMP DP  RH WIND       PRES   REMARKS
ALBUQUERQUE    PTCLDY    39  22  50 N7        30.43F WCI  34
6HR MIN TEMP:  36; 6HR MAX TEMP:  46;

EL PASO        MOCLDY    35  18  49 CALM      30.36S
6HR MIN TEMP:  32; 6HR MAX TEMP:  48;

$$


........................KEY........................
SKY/WX - SKY CONDITION/WEATHER
TMP    - TEMPERATURE IN FAHRENHEIT
DP     - DEW POINT IN FAHRENHEIT
RH     - RELATIVE HUMIDITY IN PERCENT
WIND   - DIRECTION AND SPEED IN MILES PER HOUR (MPH)
VRB    - VARIABLE WIND DIRECTION
PRES   - MEAN SEA LEVEL PRESSURE IN INCHES OF MERCURY
         F - FALLING PRESSURE   R - RISING PRESSURE
         S - STEADY PRESSURE
VSB    - VISIBILITY IN MILES
HX     - HEAT INDEX IN FAHRENHEIT
WCI    - WIND CHILL INDEX IN FAHRENHEIT
TC     - TEMPERATURE IN CELSIUS WHICH IS ALSO KNOWN AS
         TEMPERATURE IN CENTIGRADE
AFB    - AIR FORCE BASE
         LUKE AFB IS LUKE AIR FORCE BASE
         DAVIS-MONTHAN IS DAVIS-MONTHAN AIR FORCE BASE
NAS    - NAVAL AIR STATION
         EL CENTRO NAS IS EL CENTRO NAVAL AIR STATION
N/A    - NOT AVAILABLE




U.S. Dept. of Commerce
NOAA National Weather Service
1325 East West Highway
Silver Spring, MD 20910
E-mail: w-nws.webmaster@noaa.gov
Page last modified: May 16, 2007
NATIONAL WEATHER SERVICE: for Safety, for Work, for Fun - FOR LIFE